Location: Luz Observatory
(34.5000°N, 117.2833°W)
Time: 10:28:15
(UTC-07:00)

Cosmos 1484 Rocket - Visible Passes

Search period start: 19 April 2014 00:00
Search period end: 29 April 2014 00:00
Orbit: 516 x 577 km, 97.4° (Epoch: 19 April)

Date Brightness Start Highest point End Pass type
(mag) Time Alt. Az. Time Alt. Az. Time Alt. Az.
19 Apr 2.9 20:31:55 10° S 20:35:55 81° WSW 20:39:52 10° NNW visible
20 Apr 2.8 20:26:33 10° SSE 20:30:32 86° ENE 20:34:28 10° N visible
21 Apr 2.7 20:21:11 10° SSE 20:25:09 73° ENE 20:29:03 10° N visible
22 Apr 2.8 20:15:51 10° SSE 20:19:45 61° ENE 20:23:37 10° N visible
23 Apr 3.0 20:10:31 10° SSE 20:14:21 51° ENE 20:18:09 10° N visible
24 Apr 3.2 20:05:12 10° SSE 20:08:57 43° ENE 20:12:39 10° N visible
24 Apr 5.9 21:43:18 10° W 21:43:47 10° W 21:44:15 10° W visible
25 Apr 3.4 19:59:55 10° SE 20:03:33 37° ENE 20:07:07 10° N visible
25 Apr 5.7 21:36:45 10° WSW 21:38:18 12° W 21:39:52 10° WNW visible
26 Apr 3.7 19:54:39 10° SE 19:58:08 31° ENE 20:01:34 10° N visible
26 Apr 5.6 21:30:43 10° SW 21:32:50 14° W 21:34:56 10° WNW visible
27 Apr 5.5 21:24:50 10° SW 21:27:21 16° W 21:29:50 10° NW visible
28 Apr 5.3 21:19:03 10° SW 21:21:51 19° W 21:24:39 10° NW visible
